スペースウォッチ彗星

P/2013 YG46 ( Spacewatch ) 2023

English version
Home page
Updated on November 15, 2021

---------------------------------------------------------------------

・ プロフィール

・ 軌道要素

Epoch 2023 Jan. 16.0 TT = JDT 2459960.5
T 2023 Jan. 6.29510 TT                                  MPCW
q   1.7854162            (2000.0)            P               Q
n   0.16640146     Peri.  242.60280     +0.35924075     +0.92755233
a   3.2736429      Node    48.83657     -0.80068154     +0.36298742
e   0.4546087      Incl.    7.85759     -0.47943211     +0.08880771
P   5.92
From 55 observations 2013 Dec. 26-2014 Feb. 20, mean residual 0".5.

・ 光度変化

        H = 17.0  G = 0.15

---------------------------------------------------------------------

軌道要素はM.P.E.C. 2016-M22に掲載されたものです。
光度グラフはComet for Windowsで作成したものです。

---------------------------------------------------------------------

Copyright(C) Seiichi Yoshida (comet@aerith.net). All rights reserved.